M I D A S
Marine Information and Data Acquisition System
Tripno 1094 of the Zeeleeuw from 2006-01-27 05:03:36 to 2006-01-27 19:48:02
Back to CruiseResearch ActivitiesStationsMapUnderway DataData graphs

EquipmentUnitsComment
TimeDGPSUTC
LatitudeDGPSDM.mWGS84
LongitudeDGPSDM.mWGS84
HeadingGyrodeg 
SOGDGPSknotsSpeed over ground
COGDGPSdegCourse over ground
DepthEcho soundermeters200 kHz
Missing or incorrect values are displayed as -999
Navigation data collected by the RV Zeeleeuw from 2006-01-27 05:03:01 to 2006-01-27 20:00:48
                                                                                    Next 1000 lines
Time Latitude Longitude Heading SOG COG Depth
2006-01-27 05:03:11 51°13.597 2°56.091 114 0.8 291 5.6
2006-01-27 05:03:16 51°13.598 2°56.089 114.1 1.2 289 -999
2006-01-27 05:03:21 51°13.599 2°56.086 114.6 1.5 292 -999
2006-01-27 05:03:26 51°13.6 2°56.082 115.4 1.7 292 6.3
2006-01-27 05:03:32 51°13.601 2°56.077 115.8 1.9 295 -999
2006-01-27 05:03:36 51°13.602 2°56.074 116.1 2.1 293 -999
2006-01-27 05:03:42 51°13.604 2°56.069 116.3 2.3 295 -999
2006-01-27 05:03:46 51°13.605 2°56.064 116.4 2.4 294 -999
2006-01-27 05:03:52 51°13.607 2°56.058 116.7 2.7 294 -999
2006-01-27 05:03:56 51°13.609 2°56.053 117 2.9 295 -999
2006-01-27 05:04:02 51°13.611 2°56.046 117.3 3.1 295 -999
2006-01-27 05:04:06 51°13.612 2°56.04 117.3 3.3 295 -999
2006-01-27 05:04:11 51°13.614 2°56.033 117.3 3.5 294 -999
2006-01-27 05:04:16 51°13.616 2°56.026 117.2 3.6 294 -999
2006-01-27 05:04:22 51°13.619 2°56.017 117.1 3.7 294 -999
2006-01-27 05:04:26 51°13.621 2°56.011 117.1 3.8 294 -999
2006-01-27 05:04:32 51°13.623 2°56.001 117.1 4 294 -999
2006-01-27 05:04:36 51°13.625 2°55.995 117.4 4.1 294 -999
2006-01-27 05:04:42 51°13.628 2°55.985 117.8 4.2 294 -999
2006-01-27 05:04:46 51°13.63 2°55.978 118.2 4.2 295 -999
2006-01-27 05:04:52 51°13.633 2°55.967 118.7 4.3 295 -999
2006-01-27 05:04:56 51°13.635 2°55.96 119.1 4.4 296 -999
2006-01-27 05:05:01 51°13.638 2°55.952 119.6 4.5 296 -999
2006-01-27 05:05:06 51°13.641 2°55.943 120 4.5 297 -999
2006-01-27 05:05:12 51°13.644 2°55.932 120.3 4.5 296 -999
2006-01-27 05:05:16 51°13.646 2°55.925 120.6 4.6 297 -999
2006-01-27 05:05:22 51°13.65 2°55.914 121 4.6 297 -999
2006-01-27 05:05:26 51°13.652 2°55.907 121.4 4.6 298 -999
2006-01-27 05:05:32 51°13.656 2°55.896 121.9 4.6 298 -999
2006-01-27 05:05:36 51°13.659 2°55.889 122.2 4.6 299 -999
2006-01-27 05:05:42 51°13.662 2°55.878 122.6 4.6 299 -999
2006-01-27 05:05:46 51°13.665 2°55.871 122.6 4.6 299 -999
2006-01-27 05:05:52 51°13.668 2°55.86 122.6 4.6 299 -999
2006-01-27 05:05:56 51°13.671 2°55.853 122.4 4.5 299 -999
2006-01-27 05:06:02 51°13.674 2°55.842 122 4.6 298 -999
2006-01-27 05:06:06 51°13.677 2°55.835 121.7 4.7 299 -999
2006-01-27 05:06:12 51°13.681 2°55.824 121.2 4.9 298 -999
2006-01-27 05:06:16 51°13.683 2°55.816 120.7 5 298 -999
2006-01-27 05:06:22 51°13.687 2°55.804 120 5.1 298 -999
2006-01-27 05:06:26 51°13.69 2°55.796 119.2 4.9 298 -999
2006-01-27 05:06:32 51°13.693 2°55.785 118.4 4.6 296 -999
2006-01-27 05:06:36 51°13.695 2°55.778 117.4 4.5 296 -999
2006-01-27 05:06:42 51°13.698 2°55.768 116.1 4.3 295 -999
2006-01-27 05:06:46 51°13.7 2°55.762 114.7 4.1 294 -999
2006-01-27 05:06:51 51°13.702 2°55.754 113.9 3.9 293 -999
2006-01-27 05:06:56 51°13.704 2°55.746 112.9 3.7 293 4.8
2006-01-27 05:07:01 51°13.706 2°55.74 112.2 3.4 293 11.6
2006-01-27 05:07:06 51°13.707 2°55.734 111.2 3 292 11.7
2006-01-27 05:07:11 51°13.709 2°55.729 109.2 2.5 290 11.7
2006-01-27 05:07:16 51°13.71 2°55.725 106.6 2.1 291 11.4
2006-01-27 05:07:21 51°13.71 2°55.722 103.8 1.6 291 11.2
2006-01-27 05:07:26 51°13.711 2°55.72 100.7 1.2 293 11
2006-01-27 05:07:31 51°13.711 2°55.719 96.8 0.8 297 10.8
2006-01-27 05:07:36 51°13.712 2°55.718 92.4 0.5 320 10.8
2006-01-27 05:07:40 51°13.712 2°55.719 87.7 0.4 13 10.8
2006-01-27 05:07:46 51°13.713 2°55.72 82.4 0.7 40 10.5
2006-01-27 05:07:51 51°13.714 2°55.721 76.7 0.9 45 10.4
2006-01-27 05:07:56 51°13.715 2°55.724 70.5 1.3 48 10.2
2006-01-27 05:08:00 51°13.717 2°55.725 64.1 1.6 46 10.4
2006-01-27 05:08:06 51°13.719 2°55.729 57.3 1.9 40 10.7
2006-01-27 05:08:11 51°13.722 2°55.731 50.3 2.1 37 10.6
2006-01-27 05:08:16 51°13.724 2°55.734 43.4 2 31 11.1
2006-01-27 05:08:21 51°13.726 2°55.736 37.6 2 29 11.1
2006-01-27 05:08:26 51°13.729 2°55.737 34.2 1.8 26 11.1
2006-01-27 05:08:31 51°13.731 2°55.739 32 1.7 25 10.1
2006-01-27 05:08:36 51°13.732 2°55.739 30.1 1.3 21 9.7
2006-01-27 05:08:41 51°13.733 2°55.74 27.7 1 17 9.4
2006-01-27 05:08:46 51°13.734 2°55.74 25.2 0.5 10 9.3
2006-01-27 05:08:51 51°13.734 2°55.74 23 0.1 300 9.3
2006-01-27 05:08:56 51°13.733 2°55.739 21.2 0.3 217 9.4
2006-01-27 05:09:01 51°13.731 2°55.738 19.8 0.9 202 9.4
2006-01-27 05:09:06 51°13.73 2°55.737 18.6 1.2 199 9.7
2006-01-27 05:09:11 51°13.728 2°55.736 17.6 1.6 198 -999
2006-01-27 05:09:16 51°13.725 2°55.735 16.7 1.9 198 -999
2006-01-27 05:09:22 51°13.722 2°55.733 16.1 2.1 197 -999
2006-01-27 05:09:26 51°13.719 2°55.732 15.9 2 198 -999
2006-01-27 05:09:32 51°13.716 2°55.731 15.8 1.8 198 -999
2006-01-27 05:09:36 51°13.715 2°55.73 15.2 1.6 196 -999
2006-01-27 05:09:42 51°13.713 2°55.729 13.9 1.4 196 -999
2006-01-27 05:09:47 51°13.712 2°55.728 12 1.1 195 -999
2006-01-27 05:09:52 51°13.711 2°55.728 9.2 0.6 203 -999
2006-01-27 05:09:56 51°13.711 2°55.728 5.7 0.4 215 -999
2006-01-27 05:10:01 51°13.711 2°55.727 1.7 0.3 298 10.9
2006-01-27 05:10:06 51°13.712 2°55.726 358.3 0.6 333 10.6
2006-01-27 05:10:11 51°13.714 2°55.725 354.1 1.3 333 -999
2006-01-27 05:10:16 51°13.717 2°55.723 347.4 1.8 336 -999
2006-01-27 05:10:21 51°13.72 2°55.72 341.3 2.7 331 -999
2006-01-27 05:10:26 51°13.725 2°55.716 338.1 3.3 333 -999
2006-01-27 05:10:32 51°13.731 2°55.71 336.8 4.3 330 -999
2006-01-27 05:10:36 51°13.736 2°55.706 336.7 4.9 331 9.3
2006-01-27 05:10:41 51°13.744 2°55.7 337.2 5.3 333 9.6
2006-01-27 05:10:46 51°13.752 2°55.693 337.3 6.2 332 9.6
2006-01-27 05:10:51 51°13.76 2°55.686 337.3 6.7 332 9.2
2006-01-27 05:10:56 51°13.769 2°55.679 337.5 7.2 333 9.3
2006-01-27 05:11:01 51°13.779 2°55.671 338.1 7.5 334 9.4
2006-01-27 05:11:06 51°13.789 2°55.664 338.7 7.8 334 9.3
2006-01-27 05:11:11 51°13.8 2°55.656 339.3 8.2 335 9.3
2006-01-27 05:11:16 51°13.811 2°55.649 340.1 8.3 336 9.2
2006-01-27 05:11:20 51°13.82 2°55.643 341.1 8.6 337 9.1
2006-01-27 05:11:26 51°13.833 2°55.634 341.9 8.7 338 9
2006-01-27 05:11:31 51°13.844 2°55.626 341.8 8.7 337 9
2006-01-27 05:11:36 51°13.855 2°55.619 341.7 8.6 337 8.9
2006-01-27 05:11:41 51°13.866 2°55.611 341.9 8.6 337 8.8
2006-01-27 05:11:46 51°13.876 2°55.604 341.8 8.5 336 8.9
2006-01-27 05:11:51 51°13.887 2°55.596 341.5 8.5 336 8.9
2006-01-27 05:11:56 51°13.898 2°55.589 342.3 8.5 338 8.9
2006-01-27 05:12:01 51°13.909 2°55.582 342.6 8.5 337 8.9
2006-01-27 05:12:06 51°13.92 2°55.574 342.2 8.6 337 8.9
2006-01-27 05:12:11 51°13.931 2°55.566 341.3 8.7 336 8.9
2006-01-27 05:12:16 51°13.942 2°55.559 341.2 8.8 336 -999
2006-01-27 05:12:21 51°13.953 2°55.551 341.1 8.8 336 -999
2006-01-27 05:12:26 51°13.965 2°55.543 340.9 8.9 336 8.8
2006-01-27 05:12:31 51°13.976 2°55.534 340.9 9 336 8.8
2006-01-27 05:12:36 51°13.988 2°55.526 341.2 9 336 -999
2006-01-27 05:12:42 51°14.001 2°55.517 341.3 9.1 336 -999
2006-01-27 05:12:46 51°14.01 2°55.51 340.6 9.1 336 8.9
2006-01-27 05:12:52 51°14.024 2°55.5 340.4 9.1 336 -999
2006-01-27 05:12:56 51°14.033 2°55.493 340.4 9.1 336 -999
2006-01-27 05:13:01 51°14.045 2°55.484 339.8 9.1 334 -999
2006-01-27 05:13:06 51°14.056 2°55.476 339.5 9.2 335 -999
2006-01-27 05:13:11 51°14.068 2°55.467 339.4 9.3 334 9.3
2006-01-27 05:13:16 51°14.08 2°55.458 339.2 9.3 334 -999
2006-01-27 05:13:22 51°14.094 2°55.447 339.2 9.5 334 -999
2006-01-27 05:13:26 51°14.103 2°55.439 338.9 9.6 334 -999
2006-01-27 05:13:32 51°14.118 2°55.427 338.2 9.8 332 -999
2006-01-27 05:13:36 51°14.127 2°55.418 337.5 9.8 332 8.8
2006-01-27 05:13:42 51°14.142 2°55.405 336.3 10 331 -999
2006-01-27 05:13:47 51°14.154 2°55.394 334.7 10 329 -999
2006-01-27 05:13:52 51°14.166 2°55.382 334 10.1 329 -999
2006-01-27 05:13:56 51°14.175 2°55.372 332.8 10.2 327 -999
2006-01-27 05:14:02 51°14.189 2°55.356 331.1 10.2 325 -999
2006-01-27 05:14:06 51°14.198 2°55.346 329.3 10.2 324 -999
2006-01-27 05:14:12 51°14.211 2°55.328 327.4 10.2 321 8.9
2006-01-27 05:14:16 51°14.22 2°55.317 326.1 10.2 321 -999
2006-01-27 05:14:21 51°14.231 2°55.302 324.4 10.3 318 -999
2006-01-27 05:14:27 51°14.243 2°55.284 323.1 10.3 317 -999
2006-01-27 05:14:32 51°14.253 2°55.268 322.2 10.3 317 -999
2006-01-27 05:14:36 51°14.261 2°55.255 320.9 10.3 315 -999
2006-01-27 05:14:42 51°14.273 2°55.235 319.4 10.3 314 -999
2006-01-27 05:14:46 51°14.281 2°55.222 318.5 10.3 313 9.6
2006-01-27 05:14:51 51°14.291 2°55.204 317.9 10.3 313 9.4
2006-01-27 05:14:56 51°14.3 2°55.188 316.4 10.3 311 -999
2006-01-27 05:15:02 51°14.311 2°55.166 315.7 10.3 310 -999
2006-01-27 05:15:06 51°14.318 2°55.152 314.6 10.3 310 -999
2006-01-27 05:15:12 51°14.329 2°55.13 314 10.4 309 -999
2006-01-27 05:15:16 51°14.336 2°55.116 313.1 10.2 308 -999
2006-01-27 05:15:22 51°14.346 2°55.095 312.6 10.3 307 9.5
2006-01-27 05:15:26 51°14.353 2°55.08 311.9 10.2 306 9.5
2006-01-27 05:15:31 51°14.361 2°55.061 310.7 10.2 305 9.4
2006-01-27 05:15:36 51°14.369 2°55.042 310.1 10.3 304 9.6
2006-01-27 05:15:41 51°14.377 2°55.023 309 10.4 303 -999
2006-01-27 05:15:46 51°14.384 2°55.003 308.2 10.4 301 9.4
2006-01-27 05:15:51 51°14.391 2°54.983 306.5 10.5 298 9.5
2006-01-27 05:15:56 51°14.396 2°54.961 304.1 10.5 294 9.2
2006-01-27 05:16:01 51°14.401 2°54.938 301 10.6 291 9.5
2006-01-27 05:16:06 51°14.406 2°54.915 298.6 10.8 290 9.5
2006-01-27 05:16:11 51°14.411 2°54.891 296.9 11.1 287 9.6
2006-01-27 05:16:16 51°14.414 2°54.867 295.4 11.3 285 9.5
2006-01-27 05:16:21 51°14.418 2°54.843 293.5 11.5 284 9.4
2006-01-27 05:16:26 51°14.421 2°54.817 292.4 11.8 281 9.4
2006-01-27 05:16:31 51°14.423 2°54.791 289.9 11.9 279 8.8
2006-01-27 05:16:36 51°14.426 2°54.764 287.9 12.1 277 9.4
2006-01-27 05:16:41 51°14.426 2°54.736 285.2 12.4 274 9.3
2006-01-27 05:16:46 51°14.427 2°54.709 281.9 12.4 272 9.4
2006-01-27 05:16:51 51°14.426 2°54.68 279.5 12.6 270 9.4
2006-01-27 05:16:56 51°14.425 2°54.652 277.6 13 269 9.2
2006-01-27 05:17:01 51°14.424 2°54.623 276.1 13 268 9.3
2006-01-27 05:17:06 51°14.422 2°54.593 274.3 13.2 264 9.2
2006-01-27 05:17:11 51°14.419 2°54.564 271.1 13.3 262 9.3
2006-01-27 05:17:16 51°14.416 2°54.535 269.1 13.4 260 8.8
2006-01-27 05:17:20 51°14.413 2°54.511 266.8 13.6 260 9.4
2006-01-27 05:17:26 51°14.411 2°54.476 266.8 13.7 263 8.8
2006-01-27 05:17:31 51°14.409 2°54.446 268.7 13.8 264 8.7
2006-01-27 05:17:36 51°14.407 2°54.415 271.4 13.6 265 9
2006-01-27 05:17:40 51°14.406 2°54.391 271.8 13.7 264 8.8
2006-01-27 05:17:46 51°14.401 2°54.355 270.1 13.7 260 8.6
2006-01-27 05:17:51 51°14.397 2°54.326 266.9 13.8 256 8.9
2006-01-27 05:17:56 51°14.391 2°54.297 262.7 13.7 255 8.8
2006-01-27 05:18:01 51°14.384 2°54.269 259 13.8 248 8.9
2006-01-27 05:18:06 51°14.376 2°54.241 254.7 13.9 246 8.9
2006-01-27 05:18:11 51°14.369 2°54.213 251.1 13.8 246 9
2006-01-27 05:18:16 51°14.361 2°54.184 250.9 14 245 8.8
2006-01-27 05:18:21 51°14.353 2°54.155 251.1 14 249 8.7
2006-01-27 05:18:26 51°14.347 2°54.126 252.1 14 247 8.7
2006-01-27 05:18:31 51°14.339 2°54.098 254.2 14 249 8.7
2006-01-27 05:18:36 51°14.333 2°54.068 254.2 14.1 251 8.6
2006-01-27 05:18:41 51°14.326 2°54.039 255.1 14 250 8.7
2006-01-27 05:18:46 51°14.32 2°54.009 255.6 14.1 249 8.7
2006-01-27 05:18:51 51°14.313 2°53.981 255.5 14.1 251 8.6
2006-01-27 05:18:56 51°14.306 2°53.951 255.4 14.1 249 8.6
2006-01-27 05:19:01 51°14.298 2°53.923 253 14.2 247 8.7
2006-01-27 05:19:06 51°14.29 2°53.894 252.9 14.2 247 8.7
2006-01-27 05:19:11 51°14.282 2°53.865 251.9 14.2 245 8.7
2006-01-27 05:19:16 51°14.273 2°53.837 250.4 14.3 245 8.7
2006-01-27 05:19:20 51°14.266 2°53.814 249.9 14.2 244 8.7
2006-01-27 05:19:26 51°14.256 2°53.78 248.9 14.3 243 8.7
2006-01-27 05:19:31 51°14.246 2°53.753 248.3 14.3 245 8.6
2006-01-27 05:19:36 51°14.238 2°53.724 248.2 14.3 244 8.7
2006-01-27 05:19:40 51°14.23 2°53.702 248.2 14.3 242 8.8
2006-01-27 05:19:46 51°14.219 2°53.668 247.9 14.4 243 8.8
2006-01-27 05:19:51 51°14.21 2°53.64 247.7 14.3 243 8.8
2006-01-27 05:19:56 51°14.2 2°53.612 247.7 14.2 242 8.8
2006-01-27 05:20:01 51°14.191 2°53.584 246.4 14.2 242 8.8
2006-01-27 05:20:06 51°14.181 2°53.558 246.1 14.2 241 8.9
2006-01-27 05:20:11 51°14.171 2°53.531 244.5 14.2 240 8.9
2006-01-27 05:20:16 51°14.16 2°53.505 244.3 14.1 236 8.8
2006-01-27 05:20:21 51°14.15 2°53.478 242.8 14 241 8.9
2006-01-27 05:20:26 51°14.139 2°53.452 241.9 14.2 233 8.9
2006-01-27 05:20:31 51°14.129 2°53.426 241.6 14.1 241 8.9
2006-01-27 05:20:36 51°14.118 2°53.4 241.9 14.2 234 9
2006-01-27 05:20:41 51°14.108 2°53.373 243.4 14.1 243 8.9
2006-01-27 05:20:46 51°14.098 2°53.346 243.7 14.1 236 9
2006-01-27 05:20:51 51°14.089 2°53.319 244.8 14 243 9
2006-01-27 05:20:56 51°14.08 2°53.291 246 14.1 240 9.1
2006-01-27 05:21:01 51°14.071 2°53.265 247.5 14.1 245 9
2006-01-27 05:21:06 51°14.062 2°53.236 247.9 14 241 9
2006-01-27 05:21:11 51°14.053 2°53.208 247.4 14.2 242 9.1
2006-01-27 05:21:16 51°14.044 2°53.181 248.1 14.1 244 9.2
2006-01-27 05:21:21 51°14.034 2°53.153 246.8 14.2 240 9.2
2006-01-27 05:21:26 51°14.026 2°53.126 246.9 14.1 244 9.3
2006-01-27 05:21:31 51°14.016 2°53.099 246.9 14.2 239 9.4
2006-01-27 05:21:36 51°14.006 2°53.071 246.2 14.2 243 9.4
2006-01-27 05:21:41 51°13.997 2°53.044 246.7 14.1 240 9.3
2006-01-27 05:21:46 51°13.987 2°53.017 246 14.1 241 9.4
2006-01-27 05:21:51 51°13.978 2°52.989 245.9 14.1 239 9.4
2006-01-27 05:21:56 51°13.968 2°52.963 245.3 14.2 239 9.5
2006-01-27 05:22:00 51°13.96 2°52.941 245.1 14.2 240 9.5
2006-01-27 05:22:06 51°13.948 2°52.909 245.6 14.1 239 9.5
2006-01-27 05:22:11 51°13.939 2°52.881 243.7 14.2 240 9.6
2006-01-27 05:22:16 51°13.928 2°52.856 246.6 13.9 240 9.5
2006-01-27 05:22:21 51°13.919 2°52.827 242.5 14.6 238 9.5
2006-01-27 05:22:26 51°13.909 2°52.8 246.7 13.9 245 9.5
2006-01-27 05:22:31 51°13.899 2°52.773 246.1 14.2 235 9.5
2006-01-27 05:22:36 51°13.891 2°52.745 245.3 14.1 247 9.7
2006-01-27 05:22:41 51°13.88 2°52.718 247.5 14.3 236 9.7
2006-01-27 05:22:46 51°13.872 2°52.691 245.5 14.1 246 9.7
2006-01-27 05:22:51 51°13.86 2°52.665 247.5 14 239 9.6
2006-01-27 05:22:56 51°13.853 2°52.636 243.8 14.2 245 9.6
2006-01-27 05:23:01 51°13.841 2°52.611 247.3 14.1 237 9.7
2006-01-27 05:23:06 51°13.834 2°52.582 244.9 14.1 245 9.8
2006-01-27 05:23:11 51°13.823 2°52.556 246.7 14.1 237 9.8
2006-01-27 05:23:16 51°13.815 2°52.527 244.7 14.2 244 9.8
2006-01-27 05:23:21 51°13.804 2°52.502 246.3 13.9 239 9.9
2006-01-27 05:23:26 51°13.795 2°52.473 244.1 14.1 236 9.9
2006-01-27 05:23:31 51°13.784 2°52.447 245.4 14.2 243 9.8
2006-01-27 05:23:36 51°13.776 2°52.419 245.1 14.2 241 9.8
2006-01-27 05:23:41 51°13.765 2°52.393 245.2 14.1 240 9.9
2006-01-27 05:23:46 51°13.756 2°52.365 244.7 14.2 241 9.8
2006-01-27 05:23:51 51°13.746 2°52.338 245.6 14.1 240 9.8
2006-01-27 05:23:56 51°13.735 2°52.31 244.4 14.4 239 9.5
2006-01-27 05:24:01 51°13.727 2°52.283 245.1 14.3 242 9.9
2006-01-27 05:24:06 51°13.715 2°52.257 245.8 14.1 237 9.8
2006-01-27 05:24:11 51°13.707 2°52.228 243.4 14.3 242 9.9
2006-01-27 05:24:16 51°13.696 2°52.202 246.3 14.3 243 9.9
2006-01-27 05:24:21 51°13.687 2°52.173 244.4 14.5 240 9.8
2006-01-27 05:24:26 51°13.676 2°52.146 245.1 14.4 240 9.9
2006-01-27 05:24:31 51°13.666 2°52.119 244.8 14.3 239 9.9
2006-01-27 05:24:36 51°13.656 2°52.092 244 14.3 240 9.9
2006-01-27 05:24:41 51°13.646 2°52.064 244.1 14.4 238 9.9
2006-01-27 05:24:46 51°13.635 2°52.037 243.6 14.4 240 9.9
2006-01-27 05:24:51 51°13.624 2°52.01 243.7 14.5 238 9.9
2006-01-27 05:24:56 51°13.615 2°51.982 243.1 14.5 240 9.9
2006-01-27 05:25:01 51°13.603 2°51.956 245.1 14.3 239 9.9
2006-01-27 05:25:06 51°13.594 2°51.927 242.4 14.8 237 9.9
2006-01-27 05:25:11 51°13.583 2°51.9 245.4 14.4 243 9.9
2006-01-27 05:25:16 51°13.573 2°51.873 243.8 14.4 235 9.9
2006-01-27 05:25:21 51°13.562 2°51.846 243.1 14.5 241 9.8
2006-01-27 05:25:26 51°13.553 2°51.816 243.6 14.6 235 9.9
2006-01-27 05:25:31 51°13.541 2°51.791 245.1 14.2 240 10
2006-01-27 05:25:36 51°13.531 2°51.764 243.1 14.5 238 10
2006-01-27 05:25:41 51°13.521 2°51.735 242.9 14.6 239 10
2006-01-27 05:25:46 51°13.509 2°51.709 244.7 14.4 237 9.9
2006-01-27 05:25:51 51°13.5 2°51.681 242.5 14.5 239 10
2006-01-27 05:25:56 51°13.488 2°51.655 243.9 14.4 239 10
2006-01-27 05:26:01 51°13.48 2°51.626 243.2 14.6 239 10.1
2006-01-27 05:26:06 51°13.468 2°51.6 245 14.4 239 10.1
2006-01-27 05:26:11 51°13.459 2°51.571 243.1 14.5 240 10.2
2006-01-27 05:26:16 51°13.448 2°51.545 244.4 14.5 239 9.9
2006-01-27 05:26:21 51°13.439 2°51.516 244.8 14.4 241 10.2
2006-01-27 05:26:26 51°13.428 2°51.489 244.6 14.4 237 10.2
2006-01-27 05:26:31 51°13.418 2°51.463 245.4 14.3 240 10.2
2006-01-27 05:26:36 51°13.407 2°51.435 243.3 14.5 237 10.1
2006-01-27 05:26:41 51°13.397 2°51.407 244.5 14.4 242 10.2
2006-01-27 05:26:46 51°13.387 2°51.381 244.4 14.4 236 10.2
2006-01-27 05:26:51 51°13.377 2°51.353 243.6 14.5 243 10.1
2006-01-27 05:26:56 51°13.367 2°51.325 245.5 14.3 239 10.3
2006-01-27 05:27:00 51°13.358 2°51.305 244.5 14.3 237 10.3
2006-01-27 05:27:06 51°13.347 2°51.271 243.9 14.4 242 10.2
2006-01-27 05:27:11 51°13.336 2°51.244 245 14.5 238 10.2
2006-01-27 05:27:16 51°13.327 2°51.216 245.1 14.4 243 10.2
2006-01-27 05:27:21 51°13.316 2°51.189 245 14.2 237 10.3
2006-01-27 05:27:26 51°13.305 2°51.162 243.4 14.4 238 10.2
2006-01-27 05:27:31 51°13.296 2°51.134 244.2 14.4 241 10.4
2006-01-27 05:27:36 51°13.284 2°51.108 244.7 14.3 239 10.3
2006-01-27 05:27:41 51°13.274 2°51.08 242.1 14.5 240 10.3
2006-01-27 05:27:46 51°13.263 2°51.055 243.7 14.3 237 10.3
2006-01-27 05:27:51 51°13.252 2°51.026 242.1 14.7 236 10.3
2006-01-27 05:27:56 51°13.243 2°50.999 244.5 14.3 241 10.4
2006-01-27 05:28:01 51°13.231 2°50.973 244.7 14.2 235 10.3
2006-01-27 05:28:06 51°13.222 2°50.944 242.1 14.7 242 10.3
2006-01-27 05:28:11 51°13.212 2°50.918 246.4 14.2 238 10.4
2006-01-27 05:28:16 51°13.201 2°50.891 244.8 14.1 238 10.2
2006-01-27 05:28:21 51°13.191 2°50.863 242.6 14.7 238 10.3
2006-01-27 05:28:26 51°13.181 2°50.836 243.8 14.6 239 10.4
2006-01-27 05:28:31 51°13.169 2°50.809 244.5 14.3 238 10.3
2006-01-27 05:28:36 51°13.16 2°50.782 243.1 14.3 238 10.4
2006-01-27 05:28:40 51°13.15 2°50.761 243 14.4 236 10.4
2006-01-27 05:28:46 51°13.138 2°50.728 242.6 14.4 241 10.4
2006-01-27 05:28:51 51°13.127 2°50.701 242.6 14.8 234 10.4
2006-01-27 05:28:56 51°13.117 2°50.674 244.8 14.4 245 10.4
2006-01-27 05:29:01 51°13.106 2°50.648 243.3 14.3 232 10.5
2006-01-27 05:29:06 51°13.097 2°50.619 243 14.5 244 10.4
2006-01-27 05:29:11 51°13.086 2°50.592 245 14.5 236 10.5
2006-01-27 05:29:16 51°13.076 2°50.566 245 14.4 241 10.4
2006-01-27 05:29:21 51°13.066 2°50.537 243.4 14.4 237 10.6
2006-01-27 05:29:26 51°13.054 2°50.512 244.5 14.4 238 10.5
2006-01-27 05:29:31 51°13.045 2°50.483 243.3 14.4 236 10.6
2006-01-27 05:29:36 51°13.033 2°50.458 243.7 14.3 236 10.5
2006-01-27 05:29:41 51°13.023 2°50.43 242.3 14.5 239 10.4
2006-01-27 05:29:46 51°13.012 2°50.404 242.8 14.4 236 10.5
2006-01-27 05:29:51 51°13.002 2°50.377 242.7 14.5 238 10.5
2006-01-27 05:29:56 51°12.991 2°50.35 243.1 14.4 238 10.5
2006-01-27 05:30:01 51°12.981 2°50.322 243.5 14.4 239 10.5
2006-01-27 05:30:06 51°12.971 2°50.295 244.1 14.4 238 10.5
2006-01-27 05:30:11 51°12.96 2°50.268 244.4 14.2 239 10.6
2006-01-27 05:30:16 51°12.948 2°50.241 242.7 14.9 236 10.4
2006-01-27 05:30:21 51°12.94 2°50.211 244.1 14.8 244 10.5
2006-01-27 05:30:26 51°12.928 2°50.186 246.5 14.2 235 10.6
2006-01-27 05:30:31 51°12.919 2°50.157 243 14.6 240 10.5
2006-01-27 05:30:36 51°12.909 2°50.13 246.4 14.4 242 10.6
2006-01-27 05:30:40 51°12.901 2°50.108 246.3 14.5 238 10.6
2006-01-27 05:30:46 51°12.89 2°50.073 246 14.7 244 10.6
2006-01-27 05:30:51 51°12.88 2°50.046 248.4 14.4 242 10.6
2006-01-27 05:30:56 51°12.87 2°50.017 246.7 14.6 241 10.6
2006-01-27 05:31:01 51°12.861 2°49.989 246.8 14.6 242 10.6
2006-01-27 05:31:06 51°12.851 2°49.961 246.7 14.4 242 10.7
2006-01-27 05:31:11 51°12.842 2°49.932 246.6 14.7 241 10.6
2006-01-27 05:31:16 51°12.833 2°49.903 249.2 14.5 245 10.8
2006-01-27 05:31:21 51°12.822 2°49.874 248 14.6 240 10.6
2006-01-27 05:31:26 51°12.815 2°49.845 248.9 14.7 248 10.7
2006-01-27 05:31:31 51°12.804 2°49.816 249.9 14.7 240 10.7
2006-01-27 05:31:36 51°12.796 2°49.786 247.9 14.9 246 10.8
2006-01-27 05:31:41 51°12.785 2°49.758 250.4 14.7 242 10.7
2006-01-27 05:31:46 51°12.778 2°49.728 247.6 14.8 244 10.9
2006-01-27 05:31:51 51°12.767 2°49.701 249.4 14.5 240 10.8
2006-01-27 05:31:56 51°12.758 2°49.671 246.4 15 241 10.7
2006-01-27 05:32:01 51°12.748 2°49.642 248.2 14.9 244 10.8
2006-01-27 05:32:06 51°12.739 2°49.613 248.5 14.7 241 10.8
2006-01-27 05:32:11 51°12.729 2°49.585 247.4 14.8 244 10.8
2006-01-27 05:32:16 51°12.72 2°49.555 247.4 14.9 242 10.8
2006-01-27 05:32:21 51°12.71 2°49.527 247.5 14.6 242 10.9
2006-01-27 05:32:26 51°12.699 2°49.499 246.3 14.7 240 10.8
2006-01-27 05:32:31 51°12.69 2°49.469 245.1 15.1 242 10.9
2006-01-27 05:32:36 51°12.68 2°49.442 248 14.8 242 10.9
2006-01-27 05:32:40 51°12.673 2°49.418 246.2 14.8 241 10.9
2006-01-27 05:32:46 51°12.66 2°49.384 246.2 15 240 10.8
2006-01-27 05:32:51 51°12.651 2°49.354 246.7 15 243 11
2006-01-27 05:32:56 51°12.641 2°49.325 247.2 15 240 10.9
2006-01-27 05:33:01 51°12.632 2°49.296 248.2 14.9 246 11
2006-01-27 05:33:06 51°12.622 2°49.267 247.7 14.8 240 10.9
2006-01-27 05:33:11 51°12.613 2°49.237 247.4 14.9 243 11
2006-01-27 05:33:16 51°12.603 2°49.208 248 14.9 241 11
2006-01-27 05:33:21 51°12.594 2°49.179 247.5 14.8 243 11.1
2006-01-27 05:33:26 51°12.584 2°49.151 247 14.9 240 11.1
2006-01-27 05:33:31 51°12.575 2°49.123 247.5 14.7 245 11.1
2006-01-27 05:33:36 51°12.564 2°49.094 245.9 14.8 238 11.1
2006-01-27 05:33:41 51°12.554 2°49.065 246.8 14.8 244 10.9
2006-01-27 05:33:46 51°12.544 2°49.036 247.5 14.8 242 11
2006-01-27 05:33:51 51°12.536 2°49.007 247.2 14.8 241 11
2006-01-27 05:33:56 51°12.525 2°48.98 247.9 14.5 241 11
2006-01-27 05:34:01 51°12.516 2°48.951 245.8 14.8 241 10.9
2006-01-27 05:34:06 51°12.506 2°48.922 248.6 14.6 244 11
2006-01-27 05:34:11 51°12.497 2°48.894 248.2 14.7 241 11.1
2006-01-27 05:34:16 51°12.489 2°48.865 247.6 14.5 244 11.1
2006-01-27 05:34:21 51°12.479 2°48.836 248.8 14.5 242 11.2
2006-01-27 05:34:26 51°12.469 2°48.808 247.4 14.8 241 11.2
2006-01-27 05:34:31 51°12.461 2°48.779 249.3 14.6 248 11.1
2006-01-27 05:34:36 51°12.451 2°48.75 247.8 14.8 237 11.1
2006-01-27 05:34:41 51°12.442 2°48.721 247 14.8 247 11.2
2006-01-27 05:34:46 51°12.432 2°48.694 247.9 14.6 238 11.2
2006-01-27 05:34:51 51°12.423 2°48.664 246.5 14.7 245 11.1
2006-01-27 05:34:56 51°12.414 2°48.636 246.9 14.8 240 11.2
2006-01-27 05:35:00 51°12.406 2°48.613 248.2 14.5 244 11.1
2006-01-27 05:35:06 51°12.394 2°48.579 246.7 14.6 239 11.2
2006-01-27 05:35:11 51°12.384 2°48.55 245.6 14.8 242 11.2
2006-01-27 05:35:16 51°12.374 2°48.522 245.8 14.7 240 11.3
2006-01-27 05:35:20 51°12.366 2°48.5 244.6 14.5 240 11.2
2006-01-27 05:35:26 51°12.353 2°48.466 245 14.9 240 11.2
2006-01-27 05:35:31 51°12.343 2°48.436 244.2 15 241 11.2
2006-01-27 05:35:36 51°12.333 2°48.409 245.7 14.6 239 11.4
2006-01-27 05:35:41 51°12.323 2°48.381 244.7 14.7 239 11.3
2006-01-27 05:35:46 51°12.312 2°48.353 244.5 14.9 241 11.2
2006-01-27 05:35:51 51°12.303 2°48.324 245.5 14.8 241 11.2
2006-01-27 05:35:56 51°12.292 2°48.296 245.7 14.7 240 11.3
2006-01-27 05:36:01 51°12.282 2°48.268 244.1 14.8 240 11.3
2006-01-27 05:36:06 51°12.271 2°48.24 244.5 14.9 240 11.3
2006-01-27 05:36:11 51°12.261 2°48.211 243.7 15 238 11.3
2006-01-27 05:36:16 51°12.25 2°48.185 245.1 14.5 240 11.3
2006-01-27 05:36:21 51°12.239 2°48.157 243.8 14.8 235 11.2
2006-01-27 05:36:26 51°12.229 2°48.127 241.8 15.2 238 11.2
2006-01-27 05:36:31 51°12.218 2°48.101 246 14.5 240 11.2
2006-01-27 05:36:36 51°12.208 2°48.073 242.6 14.7 238 11.3
2006-01-27 05:36:41 51°12.198 2°48.045 245.3 14.6 243 11.3
2006-01-27 05:36:46 51°12.187 2°48.018 244.8 14.7 236 11.3
2006-01-27 05:36:51 51°12.178 2°47.989 244.3 14.7 244 11.3
2006-01-27 05:36:56 51°12.167 2°47.962 246.7 14.4 238 11.3
2006-01-27 05:37:00 51°12.16 2°47.939 244.2 14.7 241 11.3
2006-01-27 05:37:06 51°12.148 2°47.905 247 14.5 243 11.3
2006-01-27 05:37:11 51°12.137 2°47.878 246 14.5 238 11.2
2006-01-27 05:37:16 51°12.129 2°47.848 244.4 14.8 243 11.3
2006-01-27 05:37:20 51°12.12 2°47.827 246.4 14.5 239 11.3
2006-01-27 05:37:26 51°12.108 2°47.793 243.7 14.9 239 11.2
2006-01-27 05:37:31 51°12.098 2°47.764 244.2 14.8 242 11.3
2006-01-27 05:37:36 51°12.087 2°47.736 245.2 14.8 238 11.3
2006-01-27 05:37:41 51°12.078 2°47.708 244.5 14.8 242 11.1
2006-01-27 05:37:46 51°12.066 2°47.68 246.6 14.6 239 11.2
2006-01-27 05:37:51 51°12.056 2°47.651 244.5 15 240 11.1
2006-01-27 05:37:56 51°12.046 2°47.623 246.8 14.8 243 11.1
2006-01-27 05:38:01 51°12.036 2°47.594 245.8 14.6 239 11.2
2006-01-27 05:38:06 51°12.026 2°47.566 244.5 14.6 241 11.2
2006-01-27 05:38:11 51°12.016 2°47.537 245.7 15 241 11.2
2006-01-27 05:38:16 51°12.007 2°47.508 246.2 14.9 242 11.2
2006-01-27 05:38:21 51°11.997 2°47.48 247 14.7 242 11.2
2006-01-27 05:38:26 51°11.988 2°47.449 245.7 15.1 241 11.2
2006-01-27 05:38:31 51°11.976 2°47.421 247.6 15 246 11.2
2006-01-27 05:38:36 51°11.969 2°47.391 246.3 14.7 242 11.2
2006-01-27 05:38:41 51°11.957 2°47.364 247.2 14.6 241 11.2
2006-01-27 05:38:46 51°11.948 2°47.333 244.6 15.5 239 11.2
2006-01-27 05:38:51 51°11.939 2°47.306 247.2 14.9 248 11.3
2006-01-27 05:38:56 51°11.928 2°47.278 246.6 14.4 237 11.1
2006-01-27 05:39:01 51°11.919 2°47.247 244.5 15.2 245 11
2006-01-27 05:39:06 51°11.908 2°47.22 248.2 14.8 241 11.1
2006-01-27 05:39:11 51°11.898 2°47.192 246.4 14.7 240 11.1
2006-01-27 05:39:16 51°11.889 2°47.163 245.3 14.6 242 11.2
2006-01-27 05:39:21 51°11.877 2°47.135 245.2 14.9 238 11
2006-01-27 05:39:26 51°11.869 2°47.104 244.7 15.1 245 11
2006-01-27 05:39:31 51°11.857 2°47.078 248 14.6 241 11.1
2006-01-27 05:39:36 51°11.849 2°47.048 245.7 14.7 244 11
2006-01-27 05:39:41 51°11.84 2°47.019 247.5 14.7 244 11
2006-01-27 05:39:46 51°11.831 2°46.989 248 15.1 241 11
2006-01-27 05:39:51 51°11.822 2°46.96 250.4 14.8 250 10.9
2006-01-27 05:39:56 51°11.813 2°46.931 250.7 14.6 241 11
2006-01-27 05:40:01 51°11.806 2°46.902 250.4 14.6 250 11.1
2006-01-27 05:40:06 51°11.796 2°46.873 250.7 14.7 241 11
2006-01-27 05:40:11 51°11.788 2°46.843 249.6 14.7 247 11.2
2006-01-27 05:40:16 51°11.779 2°46.815 249.6 14.5 243 11.2
2006-01-27 05:40:21 51°11.77 2°46.785 248.7 14.5 246 11.1
2006-01-27 05:40:26 51°11.762 2°46.756 248.8 14.7 243 11.2
2006-01-27 05:40:31 51°11.752 2°46.728 249.4 14.6 245 11.1
2006-01-27 05:40:36 51°11.744 2°46.698 248.6 14.5 245 11.1
2006-01-27 05:40:41 51°11.734 2°46.67 249.8 14.6 243 11
2006-01-27 05:40:46 51°11.727 2°46.64 248.8 14.6 246 11.1
2006-01-27 05:40:51 51°11.716 2°46.611 249.9 14.7 245 11
2006-01-27 05:40:56 51°11.71 2°46.58 248.1 14.8 247 11.2
2006-01-27 05:41:01 51°11.698 2°46.554 250.8 14.4 241 11.1
2006-01-27 05:41:06 51°11.691 2°46.523 246.6 14.8 244 11.1
2006-01-27 05:41:11 51°11.681 2°46.495 250.2 14.7 243 11.1
2006-01-27 05:41:16 51°11.674 2°46.465 249.4 14.6 244 11.3
2006-01-27 05:41:21 51°11.664 2°46.436 249.5 14.7 244 11.2
2006-01-27 05:41:26 51°11.656 2°46.405 250.1 14.7 247 11.2
2006-01-27 05:41:31 51°11.647 2°46.377 249.6 14.6 243 11.3
2006-01-27 05:41:36 51°11.638 2°46.347 248.9 14.8 246 11.1
2006-01-27 05:41:41 51°11.629 2°46.318 249.1 14.8 245 11.1
2006-01-27 05:41:46 51°11.62 2°46.289 249.3 14.6 244 11.2
2006-01-27 05:41:51 51°11.612 2°46.26 248.8 14.6 245 11.2
2006-01-27 05:41:56 51°11.603 2°46.231 249.5 14.5 247 11.2
2006-01-27 05:42:01 51°11.595 2°46.201 249 14.8 243 11.2
2006-01-27 05:42:06 51°11.587 2°46.172 250.9 14.6 247 11.2
2006-01-27 05:42:11 51°11.578 2°46.142 250.6 14.6 244 11.3
2006-01-27 05:42:16 51°11.57 2°46.113 250.2 14.6 247 11.2
2006-01-27 05:42:21 51°11.561 2°46.083 250.1 14.7 244 11.2
2006-01-27 05:42:26 51°11.553 2°46.054 250 14.7 246 11.1
2006-01-27 05:42:31 51°11.544 2°46.025 250.3 14.7 243 11.1
2006-01-27 05:42:36 51°11.536 2°45.995 248.9 14.8 247 11.1
2006-01-27 05:42:40 51°11.529 2°45.972 250.4 14.6 245 11.1
2006-01-27 05:42:46 51°11.52 2°45.935 251.5 14.7 247 11.2
2006-01-27 05:42:51 51°11.512 2°45.906 252.1 14.9 247 11
2006-01-27 05:42:56 51°11.504 2°45.875 252.6 14.7 250 11
2006-01-27 05:43:01 51°11.497 2°45.846 253.6 14.4 247 10.9
2006-01-27 05:43:06 51°11.489 2°45.815 252.6 14.9 246 10.9
2006-01-27 05:43:11 51°11.482 2°45.784 254 14.9 251 11
2006-01-27 05:43:16 51°11.474 2°45.755 255.2 14.6 247 11.1
2006-01-27 05:43:21 51°11.467 2°45.724 254 14.6 249 11
2006-01-27 05:43:26 51°11.459 2°45.694 254.2 14.7 248 11.1
2006-01-27 05:43:31 51°11.451 2°45.664 255 14.8 247 11.1
2006-01-27 05:43:36 51°11.444 2°45.633 253.8 14.9 249 11.1
2006-01-27 05:43:40 51°11.439 2°45.609 255.5 14.6 250 11.1
2006-01-27 05:43:46 51°11.43 2°45.573 254.3 14.8 246 11.1
2006-01-27 05:43:51 51°11.422 2°45.542 255.7 14.9 252 11
2006-01-27 05:43:56 51°11.415 2°45.511 256.2 15 248 11.2
2006-01-27 05:44:01 51°11.408 2°45.481 257 14.7 252 11.1
2006-01-27 05:44:06 51°11.401 2°45.45 256.9 14.7 249 11
2006-01-27 05:44:11 51°11.396 2°45.417 256.1 14.9 255 11.1
2006-01-27 05:44:16 51°11.388 2°45.388 259.4 14.8 251 10.9
2006-01-27 05:44:21 51°11.383 2°45.356 258.5 14.8 251 11
2006-01-27 05:44:26 51°11.377 2°45.325 258.6 14.7 251 11.2
2006-01-27 05:44:31 51°11.37 2°45.293 259.2 15 252 11.2
2006-01-27 05:44:36 51°11.366 2°45.261 258.3 15.1 255 11.2
2006-01-27 05:44:41 51°11.359 2°45.231 262.3 14.8 254 11.2
2006-01-27 05:44:46 51°11.354 2°45.199 259.1 15 248 11.4
2006-01-27 05:44:51 51°11.346 2°45.167 259.7 14.9 255 11.2
2006-01-27 05:44:56 51°11.341 2°45.135 259 15 253 11.2
2006-01-27 05:45:01 51°11.335 2°45.104 258.9 15 253 11.3
2006-01-27 05:45:06 51°11.328 2°45.072 258.5 15.1 252 11.3
2006-01-27 05:45:11 51°11.323 2°45.04 258.8 15.1 254 11.3
2006-01-27 05:45:16 51°11.316 2°45.009 259.4 15 254 11.3
2006-01-27 05:45:21 51°11.311 2°44.977 257.6 15.1 251 11.3
2006-01-27 05:45:26 51°11.304 2°44.946 258.9 15 253 11.2
2006-01-27 05:45:31 51°11.297 2°44.914 258.6 15 251 11.2
2006-01-27 05:45:36 51°11.291 2°44.882 257.8 15.1 253 11.3
2006-01-27 05:45:41 51°11.284 2°44.851 258.8 15 251 11.4
2006-01-27 05:45:46 51°11.279 2°44.819 258.5 14.9 252 11.3
2006-01-27 05:45:51 51°11.272 2°44.787 258.8 15.2 250 11.4
2006-01-27 05:45:56 51°11.266 2°44.756 259.3 15 254 11.3
2006-01-27 05:46:01 51°11.26 2°44.724 258 15.1 251 11.3
2006-01-27 05:46:06 51°11.254 2°44.692 260 14.8 255 11.4
2006-01-27 05:46:11 51°11.247 2°44.661 258.3 15.2 250 11.3
2006-01-27 05:46:16 51°11.242 2°44.629 259.2 15 257 11.3
2006-01-27 05:46:21 51°11.235 2°44.597 258.7 15 250 11.3
2006-01-27 05:46:26 51°11.229 2°44.566 259 15 256 11.2
2006-01-27 05:46:31 51°11.224 2°44.534 259.8 15.1 252 11.3
2006-01-27 05:46:36 51°11.218 2°44.503 260.2 14.8 255 11.3
2006-01-27 05:46:41 51°11.213 2°44.47 259.8 15 253 11.4
2006-01-27 05:46:46 51°11.208 2°44.439 260.9 15 256 11.4
2006-01-27 05:46:51 51°11.203 2°44.406 261 15 253 11.4
2006-01-27 05:46:56 51°11.196 2°44.375 261 14.9 254 11.4
2006-01-27 05:47:01 51°11.192 2°44.343 260.5 15 255 11.3
2006-01-27 05:47:06 51°11.185 2°44.311 260.5 15 252 11.4
2006-01-27 05:47:11 51°11.18 2°44.278 260.3 15 255 11.4
2006-01-27 05:47:16 51°11.175 2°44.247 261.2 14.9 255 11.5
2006-01-27 05:47:21 51°11.17 2°44.215 260.8 15.1 254 11.4
2006-01-27 05:47:26 51°11.164 2°44.182 261.8 15.1 256 11.4
2006-01-27 05:47:31 51°11.16 2°44.15 261.9 15.1 255 11.5
2006-01-27 05:47:36 51°11.154 2°44.118 261.8 15 255 11.5
2006-01-27 05:47:41 51°11.148 2°44.086 261.3 15.3 255 11.5
2006-01-27 05:47:46 51°11.144 2°44.053 260.2 15.2 255 11.6
2006-01-27 05:47:51 51°11.137 2°44.021 261.5 15.1 256 11.5
2006-01-27 05:47:56 51°11.133 2°43.988 259.8 15.2 256 11.6
2006-01-27 05:48:01 51°11.127 2°43.957 261.6 15 257 11.5
2006-01-27 05:48:06 51°11.123 2°43.923 259.8 15.3 252 11.5
2006-01-27 05:48:11 51°11.116 2°43.892 262.6 15.2 261 11.5
2006-01-27 05:48:16 51°11.112 2°43.858 260.5 15.2 253 11.6
2006-01-27 05:48:20 51°11.107 2°43.833 261.2 15.1 256 11.6
2006-01-27 05:48:26 51°11.101 2°43.794 261.2 15.2 255 11.7
2006-01-27 05:48:31 51°11.096 2°43.762 260.5 15.2 255 11.8
2006-01-27 05:48:36 51°11.09 2°43.732 262.9 14.8 255 11.6
2006-01-27 05:48:41 51°11.085 2°43.698 259.6 15 252 11.7
2006-01-27 05:48:46 51°11.078 2°43.667 260.5 15.3 255 11.6
2006-01-27 05:48:51 51°11.073 2°43.635 261.8 14.8 256 11.7
2006-01-27 05:48:56 51°11.068 2°43.602 260.2 14.8 253 11.6
2006-01-27 05:49:01 51°11.063 2°43.571 260.4 15.1 256 11.6
2006-01-27 05:49:06 51°11.057 2°43.539 262.3 15 256 11.7
2006-01-27 05:49:11 51°11.053 2°43.507 260.7 14.9 255 11.8
2006-01-27 05:49:16 51°11.047 2°43.476 262.8 14.8 256 11.7
2006-01-27 05:49:20 51°11.044 2°43.45 261.4 14.9 257 11.6
2006-01-27 05:49:26 51°11.038 2°43.41 264.4 14.9 258 11.6
2006-01-27 05:49:31 51°11.036 2°43.378 263.8 14.9 256 11.7
2006-01-27 05:49:36 51°11.03 2°43.347 265 14.8 258 11.7
2006-01-27 05:49:41 51°11.026 2°43.314 264.2 14.9 259 11.7
2006-01-27 05:49:46 51°11.022 2°43.283 264.3 14.9 260 11.8
2006-01-27 05:49:51 51°11.019 2°43.25 264.7 14.8 260 11.9
2006-01-27 05:49:56 51°11.014 2°43.218 265.1 14.8 258 11.8
2006-01-27 05:50:00 51°11.012 2°43.192 264.7 14.8 259 11.9
2006-01-27 05:50:06 51°11.006 2°43.154 265.3 14.8 255 11.9
2006-01-27 05:50:11 51°11.003 2°43.122 264.6 14.7 259 11.9
2006-01-27 05:50:16 51°10.997 2°43.09 264.7 14.9 255 11.9
2006-01-27 05:50:21 51°10.995 2°43.058 263.4 15 260 11.9
2006-01-27 05:50:26 51°10.989 2°43.027 265.4 14.7 258 11.9
2006-01-27 05:50:31 51°10.986 2°42.994 264 14.7 260 11.8
2006-01-27 05:50:36 51°10.983 2°42.961 263.8 14.9 259 11.9
2006-01-27 05:50:41 51°10.979 2°42.93 267.2 14.9 261 11.9
2006-01-27 05:50:46 51°10.976 2°42.897 267.6 14.7 262 11.9
2006-01-27 05:50:51 51°10.974 2°42.865 268.5 14.7 263 12
2006-01-27 05:50:56 51°10.971 2°42.832 268.9 15 262 11.9
2006-01-27 05:51:01 51°10.97 2°42.799 270.1 15 263 12.1
2006-01-27 05:51:06 51°10.966 2°42.768 271.9 14.7 262 12.1
2006-01-27 05:51:11 51°10.965 2°42.735 270 14.9 265 11.9
2006-01-27 05:51:16 51°10.964 2°42.702 271.6 14.9 267 11.9
2006-01-27 05:51:21 51°10.962 2°42.67 272.7 14.8 265 12
2006-01-27 05:51:26 51°10.961 2°42.637 272.6 14.7 265 12
2006-01-27 05:51:31 51°10.959 2°42.607 273.7 14.2 268 12
2006-01-27 05:51:36 51°10.959 2°42.576 273.9 13.7 265 12.1
2006-01-27 05:51:41 51°10.958 2°42.548 274.8 13 268 12
2006-01-27 05:51:46 51°10.958 2°42.521 274.3 12.3 268 12.2
2006-01-27 05:51:51 51°10.957 2°42.496 276.3 11.6 268 12.1
2006-01-27 05:51:55 51°10.957 2°42.477 276.4 11 269 12.1
2006-01-27 05:52:01 51°10.956 2°42.45 276.6 10.6 269 12.1
2006-01-27 05:52:06 51°10.956 2°42.428 278.4 10.1 269 12.1
2006-01-27 05:52:10 51°10.957 2°42.41 277.9 9.7 269 12.3
2006-01-27 05:52:15 51°10.956 2°42.389 279.2 9.5 268 12.4
2006-01-27 05:52:20 51°10.956 2°42.369 279.2 9.1 271 12.2
2006-01-27 05:52:26 51°10.956 2°42.348 279.4 8.8 271 12.3
2006-01-27 05:52:31 51°10.957 2°42.33 279.6 8.6 272 12.4
2006-01-27 05:52:36 51°10.956 2°42.312 280.3 8.4 270 12.4
2006-01-27 05:52:41 51°10.957 2°42.294 279.4 8.2 272 12.4
2006-01-27 05:52:45 51°10.956 2°42.279 279.3 8.2 271 12.4
2006-01-27 05:52:51 51°10.956 2°42.258 279.2 8 268 12.4
2006-01-27 05:52:56 51°10.956 2°42.241 279.4 7.8 274 12.2
2006-01-27 05:53:01 51°10.957 2°42.223 279.4 7.7 271 12.3
2006-01-27 05:53:05 51°10.957 2°42.21 279.5 7.7 271 12.4
2006-01-27 05:53:11 51°10.958 2°42.19 282 7.4 274 12.4
2006-01-27 05:53:16 51°10.96 2°42.175 285.2 7.2 279 12.4
2006-01-27 05:53:21 51°10.962 2°42.16 290.4 7 281 12.4
2006-01-27 05:53:26 51°10.965 2°42.146 293.9 6.8 286 12.5
2006-01-27 05:53:31 51°10.968 2°42.133 301.7 6.5 291 12.4
2006-01-27 05:53:36 51°10.972 2°42.121 306.7 6.2 296 12.4
2006-01-27 05:53:41 51°10.976 2°42.11 313.1 6 298 12.3
2006-01-27 05:53:45 51°10.979 2°42.102 318.6 5.8 303 12.3
2006-01-27 05:53:51 51°10.985 2°42.09 323.7 5.3 309 12.4
2006-01-27 05:53:56 51°10.99 2°42.081 329.5 5.1 309 12.5
2006-01-27 05:54:01 51°10.994 2°42.074 333.6 4.9 313 12.4
2006-01-27 05:54:06 51°10.998 2°42.068 340.3 4.4 319 12.2
2006-01-27 05:54:11 51°11.003 2°42.063 344 4.2 321 12.3
2006-01-27 05:54:16 51°11.008 2°42.058 349.1 4.1 326 12.3
2006-01-27 05:54:21 51°11.013 2°42.054 355.2 3.8 331 12.2
2006-01-27 05:54:25 51°11.016 2°42.051 0.4 3.8 332 12.3
2006-01-27 05:54:31 51°11.022 2°42.048 5 3.5 337 12.3
2006-01-27 05:54:36 51°11.026 2°42.046 9.7 3.4 346 12.3
2006-01-27 05:54:41 51°11.031 2°42.045 15.2 3.1 348 12.3
2006-01-27 05:54:46 51°11.035 2°42.045 19.5 3 354 12.3
2006-01-27 05:54:51 51°11.038 2°42.044 23.9 2.8 359 12.3
2006-01-27 05:54:56 51°11.041 2°42.044 28.3 2.7 2 12.2
2006-01-27 05:55:01 51°11.045 2°42.046 34.3 2.5 10 12.2
2006-01-27 05:55:05 51°11.048 2°42.047 39.1 2.4 13 12.2
2006-01-27 05:55:11 51°11.051 2°42.048 44 2.3 22 12.2
2006-01-27 05:55:16 51°11.054 2°42.051 46.5 2.3 24 12.1
2006-01-27 05:55:21 51°11.057 2°42.053 48.1 2.4 23 12
2006-01-27 05:55:26 51°11.061 2°42.055 49.2 2.5 25 12.1
2006-01-27 05:55:31 51°11.064 2°42.058 48.8 2.5 31 12.1
2006-01-27 05:55:36 51°11.067 2°42.061 48.3 2.5 23 12.1
2006-01-27 05:55:41 51°11.07 2°42.063 47.1 2.3 22 12.1
2006-01-27 05:55:45 51°11.072 2°42.064 45.8 2.2 23 12.2
2006-01-27 05:55:51 51°11.075 2°42.066 45 2.1 22 12.2
2006-01-27 05:55:56 51°11.078 2°42.068 43.6 1.9 15 12
2006-01-27 05:56:01 51°11.081 2°42.069 43.1 1.7 14 11.9
2006-01-27 05:56:06 51°11.082 2°42.069 43.2 1.6 15 12
2006-01-27 05:56:11 51°11.084 2°42.069 43 1.6 9 12
2006-01-27 05:56:16 51°11.087 2°42.069 42.8 1.6 3 12
2006-01-27 05:56:21 51°11.089 2°42.07 42.5 1.4 13 12.2
2006-01-27 05:56:25 51°11.09 2°42.07 41.7 1.4 359 12.1
2006-01-27 05:56:31 51°11.093 2°42.071 41.3 1.2 -999 12.1
2006-01-27 05:56:36 51°11.095 2°42.071 41.2 1.3 357 12.2
2006-01-27 05:56:41 51°11.096 2°42.071 40.7 1.1 5 12.2
2006-01-27 05:56:46 51°11.097 2°42.07 40.6 1 335 12
2006-01-27 05:56:51 51°11.099 2°42.069 40.3 1.1 332 11.8
2006-01-27 05:56:56 51°11.1 2°42.068 40.4 0.8 341 11.9
2006-01-27 05:57:01 51°11.101 2°42.068 40.3 0.9 334 12
2006-01-27 05:57:06 51°11.102 2°42.066 39.6 1 325 12
2006-01-27 05:57:11 51°11.102 2°42.064 39.2 0.9 315 11.9
2006-01-27 05:57:16 51°11.104 2°42.063 39 0.9 319 12
2006-01-27 05:57:21 51°11.104 2°42.062 38 0.7 313 12.1
2006-01-27 05:57:26 51°11.105 2°42.06 36.9 1 308 12.1
2006-01-27 05:57:31 51°11.106 2°42.057 36.2 1.2 296 12.1
2006-01-27 05:57:36 51°11.106 2°42.055 35.6 0.9 290 12
2006-01-27 05:57:41 51°11.107 2°42.053 34.8 1.2 292 12
2006-01-27 05:57:46 51°11.107 2°42.051 34.2 0.8 293 12.1
2006-01-27 05:57:51 51°11.108 2°42.049 33.7 0.9 296 12.1
2006-01-27 05:57:56 51°11.108 2°42.046 33.5 1 291 12.1
2006-01-27 05:58:01 51°11.109 2°42.045 33 0.9 289 12.1
2006-01-27 05:58:06 51°11.109 2°42.043 32.6 1 287 12.1
2006-01-27 05:58:11 51°11.109 2°42.04 32.3 1.2 286 12
2006-01-27 05:58:16 51°11.11 2°42.038 32 1.2 280 12
2006-01-27 05:58:21 51°11.11 2°42.035 31.9 1.1 281 12
2006-01-27 05:58:26 51°11.11 2°42.033 31.4 1.1 277 12
2006-01-27 05:58:32 51°11.111 2°42.03 30.6 1.4 278 12
2006-01-27 05:58:36 51°11.111 2°42.028 30.6 1.2 277 12
2006-01-27 05:58:41 51°11.111 2°42.026 30.4 1.1 277 12
2006-01-27 05:58:46 51°11.111 2°42.022 29.3 1.4 277 11.9
2006-01-27 05:58:51 51°11.111 2°42.02 29.4 1.3 272 12
2006-01-27 05:58:56 51°11.111 2°42.017 29.6 1.3 272 12
2006-01-27 05:59:01 51°11.111 2°42.014 29.3 1.2 269 11.9
2006-01-27 05:59:06 51°11.111 2°42.011 29.1 1.4 269 11.9
2006-01-27 05:59:11 51°11.111 2°42.008 28.5 1.3 263 11.9
2006-01-27 05:59:16 51°11.11 2°42.005 28.3 1.5 259 12
2006-01-27 05:59:21 51°11.11 2°42.002 27.1 1.8 257 12
2006-01-27 05:59:26 51°11.109 2°41.997 26.1 1.6 248 11.9
2006-01-27 05:59:31 51°11.108 2°41.994 26.7 1.5 248 12
2006-01-27 05:59:36 51°11.107 2°41.991 25.2 1.7 251 12
2006-01-27 05:59:41 51°11.106 2°41.987 23.6 1.7 248 12
2006-01-27 05:59:45 51°11.106 2°41.985 22.7 1.7 245 11.9
2006-01-27 05:59:51 51°11.104 2°41.98 21.3 1.8 247 11.9
2006-01-27 05:59:56 51°11.103 2°41.977 19.3 1.8 244 11.9
2006-01-27 06:00:01 51°11.102 2°41.973 18.6 1.8 244 11.9
2006-01-27 06:00:06 51°11.101 2°41.97 16.6 1.9 243 11.9
2006-01-27 06:00:11 51°11.1 2°41.966 16.1 1.8 241 12
2006-01-27 06:00:16 51°11.098 2°41.963 15 1.6 240 12
2006-01-27 06:00:21 51°11.097 2°41.961 13.7 1.4 237 12
2006-01-27 06:00:26 51°11.096 2°41.959 12.1 1.6 242 11.9
2006-01-27 06:00:31 51°11.095 2°41.957 12.2 0.7 223 11.9
2006-01-27 06:00:36 51°11.095 2°41.957 16.5 0.7 208 12
2006-01-27 06:00:41 51°11.094 2°41.955 21.5 0.8 245 11.9
2006-01-27 06:00:46 51°11.094 2°41.954 27.5 0.5 209 12
2006-01-27 06:00:51 51°11.094 2°41.953 33.3 0.3 236 12
2006-01-27 06:00:56 51°11.093 2°41.953 38.7 0.1 247 12
2006-01-27 06:01:01 51°11.093 2°41.953 43.9 -999 254 12.1
2006-01-27 06:01:06 51°11.093 2°41.953 48.3 0.1 310 12.1
2006-01-27 06:01:11 51°11.094 2°41.953 52.8 0.3 329 12.1
2006-01-27 06:01:16 51°11.094 2°41.953 56.6 0.2 4 12.1
2006-01-27 06:01:21 51°11.094 2°41.953 59.1 0.2 66 12
2006-01-27 06:01:25 51°11.094 2°41.953 61.3 0.4 353 12
2006-01-27 06:01:31 51°11.094 2°41.954 62.8 0.2 341 11.9
2006-01-27 06:01:36 51°11.095 2°41.954 64.5 -999 280 11.8
2006-01-27 06:01:41 51°11.094 2°41.954 66.5 0.1 145 11.8
2006-01-27 06:01:45 51°11.095 2°41.954 67.7 0.2 122 11.9
2006-01-27 06:01:51 51°11.095 2°41.955 68.6 0.5 140 12
2006-01-27 06:01:56 51°11.094 2°41.955 69.1 0.1 27 11.9
2006-01-27 06:02:01 51°11.095 2°41.954 70.1 0.1 23 12
2006-01-27 06:02:05 51°11.094 2°41.955 70.4 0.3 167 12.2
2006-01-27 06:02:11 51°11.094 2°41.954 70.3 0.1 145 12
2006-01-27 06:02:16 51°11.094 2°41.954 70.5 0.2 318 11.9
2006-01-27 06:02:21 51°11.094 2°41.954 70.4 0.2 198 12.1
2006-01-27 06:02:25 51°11.094 2°41.954 69.7 0.1 206 12
2006-01-27 06:02:31 51°11.094 2°41.954 70.6 0.2 182 12
2006-01-27 06:02:36 51°11.094 2°41.954 70.9 0.1 167 12
2006-01-27 06:02:41 51°11.094 2°41.954 70.4 -999 249 12.1
2006-01-27 06:02:46 51°11.094 2°41.954 69.7 0.1 171 12.1
2006-01-27 06:02:51 51°11.094 2°41.953 68.7 0.3 334 12.1
2006-01-27 06:02:56 51°11.094 2°41.952 67.5 0.1 65 12.1
2006-01-27 06:03:01 51°11.094 2°41.953 66.7 -999 267 12
2006-01-27 06:03:06 51°11.094 2°41.954 65.8 0.1 323 12
2006-01-27 06:03:12 51°11.094 2°41.954 64.1 0.1 291 11.9
2006-01-27 06:03:16 51°11.095 2°41.953 63.6 0.3 306 11.9
2006-01-27 06:03:21 51°11.095 2°41.953 63.1 0.1 328 12
2006-01-27 06:03:25 51°11.095 2°41.953 62.4 0.2 329 11.9
2006-01-27 06:03:31 51°11.095 2°41.952 61.7 0.4 304 12
2006-01-27 06:03:36 51°11.095 2°41.952 61 0.1 273 12.1
2006-01-27 06:03:41 51°11.095 2°41.952 61.2 0.2 303 12.1
2006-01-27 06:03:45 51°11.096 2°41.952 61.2 -999 169 12.2
2006-01-27 06:03:51 51°11.096 2°41.953 60.9 0.1 90 12.3
2006-01-27 06:03:56 51°11.096 2°41.952 61.1 0.2 325 12.2
2006-01-27 06:04:01 51°11.096 2°41.952 61.3 0.1 66 12.2
2006-01-27 06:04:06 51°11.097 2°41.952 61.6 0.2 22 12.2
2006-01-27 06:04:11 51°11.097 2°41.952 61.6 0.2 345 12.1
2006-01-27 06:04:16 51°11.097 2°41.952 62 0.2 13 12.1
2006-01-27 06:04:21 51°11.097 2°41.952 63 0.2 341 12
2006-01-27 06:04:26 51°11.097 2°41.952 63.1 0.1 41 12
2006-01-27 06:04:31 51°11.097 2°41.952 62.8 0.1 332 12
2006-01-27 06:04:36 51°11.098 2°41.952 63.6 0.1 130 12.1
2006-01-27 06:04:41 51°11.098 2°41.952 63.6 0.1 155 12.1
2006-01-27 06:04:45 51°11.098 2°41.952 64.3 0.2 358 12.1
2006-01-27 06:04:51 51°11.098 2°41.952 64.6 0.1 48 12
2006-01-27 06:04:56 51°11.098 2°41.951 64.5 0.1 141 11.9
2006-01-27 06:05:01 51°11.098 2°41.952 65.3 0.1 195 12
2006-01-27 06:05:06 51°11.097 2°41.952 66.1 0.1 175 12
2006-01-27 06:05:11 51°11.098 2°41.952 66.3 0.3 321 12
2006-01-27 06:05:16 51°11.097 2°41.951 66.6 0.2 133 11.9
2006-01-27 06:05:21 51°11.097 2°41.951 67.4 -999 251 11.9
2006-01-27 06:05:26 51°11.097 2°41.952 68 0.3 162 12
2006-01-27 06:05:31 51°11.097 2°41.951 68.4 0.1 185 11.9
2006-01-27 06:05:36 51°11.097 2°41.951 69.7 0.4 148 11.9
2006-01-27 06:05:41 51°11.097 2°41.952 70.9 0.3 146 12.1
2006-01-27 06:05:46 51°11.096 2°41.952 71.1 0.1 134 12
2006-01-27 06:05:51 51°11.096 2°41.953 71.7 0.2 2 12
2006-01-27 06:05:56 51°11.096 2°41.953 71.2 0.2 130 12.1
2006-01-27 06:06:01 51°11.096 2°41.953 70.5 0.1 69 12.1
2006-01-27 06:06:06 51°11.096 2°41.954 70.5 0.1 100 12.2
2006-01-27 06:06:11 51°11.096 2°41.954 69.6 0.1 96 12.2
2006-01-27 06:06:16 51°11.096 2°41.954 69.3 0.1 84 12.2
2006-01-27 06:06:21 51°11.096 2°41.954 69.2 0.1 105 12.2
2006-01-27 06:06:26 51°11.096 2°41.954 68.6 -999 140 12.2
2006-01-27 06:06:31 51°11.096 2°41.955 68 0.1 207 12.2
2006-01-27 06:06:36 51°11.096 2°41.954 67.3 0.2 180 12.3
2006-01-27 06:06:41 51°11.095 2°41.953 66.8 0.1 176 12.2
2006-01-27 06:06:46 51°11.095 2°41.953 66.6 0.3 277 12.1
2006-01-27 06:06:51 51°11.095 2°41.953 66.1 0.5 181 12.1
2006-01-27 06:06:56 51°11.094 2°41.953 65.7 0.2 217 12
2006-01-27 06:07:01 51°11.095 2°41.952 65.2 0.4 307 11.9
2006-01-27 06:07:05 51°11.095 2°41.952 64.7 0.3 167 11.9
2006-01-27 06:07:11 51°11.095 2°41.952 64.8 0.1 294 11.9
2006-01-27 06:07:16 51°11.095 2°41.953 63.8 0.1 352 12
2006-01-27 06:07:21 51°11.096 2°41.953 63.4 0.2 79 12.1
2006-01-27 06:07:26 51°11.096 2°41.953 63.1 0.2 62 12.2
2006-01-27 06:07:31 51°11.096 2°41.953 62.4 0.2 31 12.1
2006-01-27 06:07:36 51°11.096 2°41.953 62.4 0.2 84 12.1
2006-01-27 06:07:41 51°11.096 2°41.953 62.6 0.1 95 12.1
2006-01-27 06:07:46 51°11.096 2°41.953 62.6 0.2 350 12.1
2006-01-27 06:07:51 51°11.097 2°41.953 62.5 0.3 332 12.1
2006-01-27 06:07:56 51°11.096 2°41.953 62.4 0.1 143 12.1
2006-01-27 06:08:01 51°11.097 2°41.953 62.4 0.1 327 12.1
2006-01-27 06:08:06 51°11.097 2°41.953 62.4 0.2 274 12.2
2006-01-27 06:08:11 51°11.097 2°41.952 62.4 0.2 259 12.1
2006-01-27 06:08:16 51°11.097 2°41.952 62.2 0.2 304 12.2
2006-01-27 06:08:21 51°11.097 2°41.951 62.2 0.1 132 12.2
2006-01-27 06:08:26 51°11.097 2°41.952 62.2 0.2 142 12.1
2006-01-27 06:08:31 51°11.097 2°41.952 61.6 0.1 315 11.9
2006-01-27 06:08:36 51°11.097 2°41.952 61.1 0.1 275 11.8
2006-01-27 06:08:41 51°11.097 2°41.951 60.6 0.1 309 11.8
2006-01-27 06:08:46 51°11.097 2°41.951 60.9 0.2 38 11.8
2006-01-27 06:08:51 51°11.097 2°41.951 61.5 0.1 24 11.9
2006-01-27 06:08:56 51°11.097 2°41.952 61.7 0.2 148 12.1
2006-01-27 06:09:01 51°11.097 2°41.952 61.6 0.3 345 12.1
2006-01-27 06:09:06 51°11.097 2°41.952 61.6 0.1 37 12.1
2006-01-27 06:09:11 51°11.098 2°41.952 61.9 0.2 6 12.2
2006-01-27 06:09:16 51°11.098 2°41.952 61.7 -999 88 12.3
2006-01-27 06:09:21 51°11.098 2°41.952 61 0.1 96 12.3
2006-01-27 06:09:25 51°11.098 2°41.952 61 0.1 355 12.2
2006-01-27 06:09:31 51°11.098 2°41.952 61 0.2 311 12.1
2006-01-27 06:09:36 51°11.098 2°41.952 60.9 0.1 358 12.1
2006-01-27 06:09:41 51°11.099 2°41.952 60.6 0.2 328 12.1
2006-01-27 06:09:46 51°11.099 2°41.952 60.2 0.2 301 12.2
2006-01-27 06:09:51 51°11.099 2°41.952 59.4 0.1 307 12.2
2006-01-27 06:09:56 51°11.099 2°41.951 59.5 0.4 322 12.1
2006-01-27 06:10:01 51°11.099 2°41.951 59.5 0.1 160 12.2
2006-01-27 06:10:06 51°11.099 2°41.952 59.1 0.4 315 12.3
2006-01-27 06:10:11 51°11.099 2°41.95 58.5 0.2 322 12
2006-01-27 06:10:16 51°11.099 2°41.95 59.3 0.1 244 11.9
2006-01-27 06:10:21 51°11.099 2°41.951 60.5 0.1 308 11.8
2006-01-27 06:10:26 51°11.1 2°41.951 60.5 -999 355 12
2006-01-27 06:10:31 51°11.1 2°41.95 60.3 -999 77 12.1
2006-01-27 06:10:36 51°11.1 2°41.951 60.9 0.1 85 12.1
2006-01-27 06:10:41 51°11.1 2°41.951 61.1 0.2 113 12.2
2006-01-27 06:10:46 51°11.1 2°41.951 60.9 0.1 54 12.2
2006-01-27 06:10:51 51°11.1 2°41.951 60.9 0.1 37 12.3
2006-01-27 06:10:56 51°11.1 2°41.951 60.9 -999 69 12.3
2006-01-27 06:11:01 51°11.1 2°41.952 60.9 0.2 122 12.3
2006-01-27 06:11:06 51°11.1 2°41.952 61.3 0.1 354 12.2
2006-01-27 06:11:11 51°11.1 2°41.951 61.3 0.2 311 12.1
2006-01-27 06:11:16 51°11.101 2°41.95 61.4 0.3 141 12.2
2006-01-27 06:11:21 51°11.1 2°41.951 62.1 0.3 162 12.1
2006-01-27 06:11:26 51°11.1 2°41.951 61.4 0.4 305 12
2006-01-27 06:11:31 51°11.101 2°41.95 60.3 0.3 304 12
2006-01-27 06:11:36 51°11.101 2°41.95 60.8 0.1 344 12
2006-01-27 06:11:41 51°11.101 2°41.95 60.2 0.2 338 12.1
2006-01-27 06:11:46 51°11.101 2°41.949 59.4 0.1 309 12.2
2006-01-27 06:11:51 51°11.101 2°41.949 59.2 0.2 351 12.1
2006-01-27 06:11:56 51°11.101 2°41.949 59.8 0.1 115 12.1
2006-01-27 06:12:01 51°11.101 2°41.95 59.7 0.1 59 12
2006-01-27 06:12:06 51°11.102 2°41.95 59.5 0.2 38 12.1
2006-01-27 06:12:11 51°11.102 2°41.95 59.9 0.3 29 12
2006-01-27 06:12:16 51°11.102 2°41.949 60.5 0.1 47 12
2006-01-27 06:12:21 51°11.102 2°41.95 60.9 0.1 134 12.1
2006-01-27 06:12:26 51°11.102 2°41.95 61.2 0.2 310 12.1
2006-01-27 06:12:31 51°11.103 2°41.949 61.3 0.3 325 12.2
2006-01-27 06:12:36 51°11.103 2°41.949 62.1 0.1 66 12.2
2006-01-27 06:12:41 51°11.103 2°41.949 62.7 0.2 16 12.2
2006-01-27 06:12:45 51°11.103 2°41.949 62.5 0.1 354 12.1
2006-01-27 06:12:51 51°11.103 2°41.95 62.8 0.1 17 12.1
2006-01-27 06:12:56 51°11.104 2°41.95 62.9 0.2 2 12.1
2006-01-27 06:13:01 51°11.103 2°41.949 63.1 0.1 95 12.1
2006-01-27 06:13:06 51°11.103 2°41.95 64 -999 69 12.1
2006-01-27 06:13:11 51°11.103 2°41.95 64.3 0.1 302 12.1
2006-01-27 06:13:16 51°11.103 2°41.95 65 0.2 206 12.1
2006-01-27 06:13:21 51°11.103 2°41.95 66.1 0.2 234 12.1
2006-01-27 06:13:26 51°11.103 2°41.95 67.4 0.2 202 12
2006-01-27 06:13:31 51°11.102 2°41.951 67.7 0.4 186 12.1
2006-01-27 06:13:36 51°11.102 2°41.95 68.1 0.3 231 12
2006-01-27 06:13:41 51°11.102 2°41.949 69.4 0.4 175 12
2006-01-27 06:13:46 51°11.102 2°41.949 70 0.2 197 12.1
2006-01-27 06:13:51 51°11.101 2°41.949 70.6 0.1 254 12.1
2006-01-27 06:13:56 51°11.101 2°41.95 71.3 0.2 143 12.2
2006-01-27 06:14:01 51°11.1 2°41.951 71.3 0.5 154 12.3
2006-01-27 06:14:06 51°11.1 2°41.951 70.8 0.1 13 12
2006-01-27 06:14:11 51°11.101 2°41.951 71.3 0.1 30 12.1
2006-01-27 06:14:16 51°11.101 2°41.951 71.2 0.2 139 12.1
2006-01-27 06:14:21 51°11.101 2°41.951 70.1 0.2 358 12.1
2006-01-27 06:14:26 51°11.1 2°41.951 69.9 0.4 139 12.1
2006-01-27 06:14:31 51°11.1 2°41.952 69.5 0.1 184 12.2
2006-01-27 06:14:36 51°11.1 2°41.952 68.7 0.1 228 12.3
2006-01-27 06:14:41 51°11.101 2°41.951 68.2 0.2 303 12.2
2006-01-27 06:14:46 51°11.1 2°41.951 67.8 0.2 173 12.3
2006-01-27 06:14:51 51°11.1 2°41.951 67.7 0.2 146 12.2
2006-01-27 06:14:56 51°11.1 2°41.951 67 0.1 270 12
2006-01-27 06:15:01 51°11.1 2°41.951 66.6 0.2 212 12
2006-01-27 06:15:06 51°11.099 2°41.951 66.2 0.4 169 12.1
2006-01-27 06:15:11 51°11.099 2°41.951 66.3 0.1 148 12.2
2006-01-27 06:15:16 51°11.099 2°41.951 66.3 0.3 136 12.2
2006-01-27 06:15:21 51°11.099 2°41.951 67 0.4 124 12.2
2006-01-27 06:15:26 51°11.098 2°41.952 66.7 0.4 149 12.2
2006-01-27 06:15:31 51°11.098 2°41.952 67.2 0.1 117 12
2006-01-27 06:15:36 51°11.099 2°41.952 66.9 0.1 59 12.1
2006-01-27 06:15:41 51°11.099 2°41.952 66 0.1 98 12.2
2006-01-27 06:15:45 51°11.099 2°41.952 65.6 0.1 45 12.3
2006-01-27 06:15:51 51°11.099 2°41.953 64.9 0.2 110 12.2
2006-01-27 06:15:56 51°11.099 2°41.952 63.7 0.3 340 12.2
2006-01-27 06:16:01 51°11.099 2°41.952 63.5 0.1 358 12.2
2006-01-27 06:16:06 51°11.099 2°41.952 62.8 0.3 124 12.1
2006-01-27 06:16:11 51°11.098 2°41.953 61.5 0.1 13 11.9
2006-01-27 06:16:16 51°11.099 2°41.952 60.4 0.1 290 11.9
2006-01-27 06:16:21 51°11.099 2°41.952 59.6 0.3 144 12.1
2006-01-27 06:16:26 51°11.099 2°41.952 58.7 0.4 315 12.1
2006-01-27 06:16:31 51°11.099 2°41.951 57.3 0.3 294 12.2
2006-01-27 06:16:36 51°11.1 2°41.951 56.5 0.2 333 12.3
2006-01-27 06:16:41 51°11.1 2°41.95 56.2 0.2 333 12.2
2006-01-27 06:16:46 51°11.1 2°41.95 55.5 0.1 309 12.2
2006-01-27 06:16:51 51°11.1 2°41.951 56 0.1 80 12.2
2006-01-27 06:16:56 51°11.101 2°41.951 56.2 0.4 347 12.2
2006-01-27 06:17:01 51°11.101 2°41.951 56.8 0.3 57 12.3
2006-01-27 06:17:06 51°11.101 2°41.951 57.7 0.3 69 12.3
2006-01-27 06:17:11 51°11.101 2°41.951 58.2 0.2 5 12.1
2006-01-27 06:17:16 51°11.102 2°41.951 58.8 0.1 1 12.1
2006-01-27 06:17:21 51°11.102 2°41.951 59.3 0.2 81 12.1
2006-01-27 06:17:26 51°11.102 2°41.95 59.5 0.2 32 12.1
2006-01-27 06:17:31 51°11.102 2°41.95 59.1 0.1 320 12
2006-01-27 06:17:36 51°11.102 2°41.95 59.5 0.1 335 12.1
2006-01-27 06:17:41 51°11.102 2°41.95 60.2 0.1 349 12.2
2006-01-27 06:17:46 51°11.103 2°41.949 60.8 0.1 311 12.2
2006-01-27 06:17:51 51°11.103 2°41.949 60.6 0.1 335 12.2
2006-01-27 06:17:56 51°11.103 2°41.949 61 0.1 351 12.2
2006-01-27 06:18:01 51°11.103 2°41.95 61.4 0.2 47 12.3
2006-01-27 06:18:06 51°11.103 2°41.95 62.1 0.3 121 12.1
2006-01-27 06:18:11 51°11.103 2°41.951 62.7 0.1 285 12.2
2006-01-27 06:18:16 51°11.103 2°41.95 63.5 0.1 267 12.1
2006-01-27 06:18:21 51°11.103 2°41.95 65.2 0.2 326 12.1
2006-01-27 06:18:26 51°11.103 2°41.95 66.1 0.1 268 12.1
2006-01-27 06:18:31 51°11.103 2°41.95 66.8 0.1 255 12.1
2006-01-27 06:18:36 51°11.103 2°41.95 66.7 -999 192 12.1
2006-01-27 06:18:41 51°11.103 2°41.95 67.3 0.1 122 12.2
2006-01-27 06:18:46 51°11.103 2°41.95 67 0.1 127 12.3
2006-01-27 06:18:52 51°11.103 2°41.95 66.7 -999 142 12.3
2006-01-27 06:18:56 51°11.103 2°41.95 66.6 0.1 124 12.3
2006-01-27 06:19:01 51°11.103 2°41.95 66.7 0.2 159 12.2
2006-01-27 06:19:06 51°11.103 2°41.95 66.7 -999 194 12.2
2006-01-27 06:19:11 51°11.103 2°41.95 66.7 0.1 218 12.2
2006-01-27 06:19:16 51°11.103 2°41.95 66.9 -999 247 12.2
2006-01-27 06:19:21 51°11.103 2°41.951 67.5 0.3 150 12.3
2006-01-27 06:19:25 51°11.103 2°41.951 67.1 0.1 311 12.3
2006-01-27 06:19:31 51°11.103 2°41.95 66.6 0.2 341 12.2
2006-01-27 06:19:36 51°11.103 2°41.95 66.3 0.2 135 12.2
2006-01-27 06:19:41 51°11.103 2°41.95 65.9 0.1 159 12.1
2006-01-27 06:19:46 51°11.103 2°41.95 65.5 0.2 319 12.1
2006-01-27 06:19:51 51°11.103 2°41.95 64.4 0.3 288 12
2006-01-27 06:19:56 51°11.103 2°41.95 64.1 0.1 232 12
2006-01-27 06:20:01 51°11.103 2°41.95 63.8 -999 256 12.1
2006-01-27 06:20:06 51°11.103 2°41.95 62.8 -999 49 12.1
2006-01-27 06:20:11 51°11.102 2°41.95 63.1 0.1 176 12.1
2006-01-27 06:20:16 51°11.103 2°41.95 63.7 0.1 39 12.2
2006-01-27 06:20:21 51°11.103 2°41.95 64 0.2 15 12.2
2006-01-27 06:20:26 51°11.103 2°41.951 64.7 0.3 139 12.3
2006-01-27 06:20:31 51°11.103 2°41.951 65.2 0.1 127 12.2
2006-01-27 06:20:36 51°11.103 2°41.951 65.7 0.2 129 12.3
2006-01-27 06:20:41 51°11.102 2°41.952 66.2 0.2 143 12.2
2006-01-27 06:20:46 51°11.102 2°41.952 67 0.1 297 12.1
2006-01-27 06:20:51 51°11.102 2°41.951 67.8 0.1 266 12.1
2006-01-27 06:20:56 51°11.102 2°41.951 68.8 0.2 165 12.2
2006-01-27 06:21:01 51°11.102 2°41.952 69.1 0.3 185 12.2
2006-01-27 06:21:06 51°11.101 2°41.951 68.9 0.1 250 12.2
2006-01-27 06:21:11 51°11.101 2°41.951 69 0.1 225 12.2
2006-01-27 06:21:16 51°11.101 2°41.951 69.2 0.1 269 12.3
2006-01-27 06:21:21 51°11.101 2°41.95 68.7 0.3 189 12.3
2006-01-27 06:21:25 51°11.1 2°41.95 68.7 0.3 182 12.1
2006-01-27 06:21:31 51°11.1 2°41.951 69.3 0.1 163 12.2
2006-01-27 06:21:36 51°11.1 2°41.951 68.8 0.3 163 12.3
2006-01-27 06:21:41 51°11.1 2°41.951 67.8 0.3 137 12.3
2006-01-27 06:21:46 51°11.1 2°41.952 67.8 0.1 146 12.3
2006-01-27 06:21:51 51°11.099 2°41.952 67.5 0.2 136 12.2
2006-01-27 06:21:56 51°11.099 2°41.952 66.9 0.2 350 12.1
2006-01-27 06:22:01 51°11.1 2°41.952 66.7 0.1 3 12.1
2006-01-27 06:22:06 51°11.099 2°41.952 66.8 0.1 118 12.1
2006-01-27 06:22:11 51°11.099 2°41.953 65.9 0.2 123 12.2
2006-01-27 06:22:16 51°11.099 2°41.953 64.8 0.1 316 12.1
2006-01-27 06:22:21 51°11.1 2°41.952 64.7 0.1 31 12.2
2006-01-27 06:22:26 51°11.1 2°41.952 64.1 -999 187 12.4
2006-01-27 06:22:31 51°11.099 2°41.952 63.5 0.3 131 12.4
2006-01-27 06:22:36 51°11.099 2°41.952 63.1 0.3 152 12.2
2006-01-27 06:22:41 51°11.099 2°41.952 62.4 0.2 267 12.1
2006-01-27 06:22:46 51°11.099 2°41.952 61.6 0.3 274 12
2006-01-27 06:22:51 51°11.099 2°41.951 61.3 0.2 290 12.1
2006-01-27 06:22:56 51°11.099 2°41.951 60.5 0.3 137 12.2
2006-01-27 06:23:01 51°11.099 2°41.951 59.4 0.2 305 12.1
2006-01-27 06:23:06 51°11.099 2°41.951 58 0.2 302 12.1
2006-01-27 06:23:11 51°11.099 2°41.951 57.3 0.1 103 12.3
2006-01-27 06:23:16 51°11.099 2°41.951 56.5 0.3 348 12.4
2006-01-27 06:23:21 51°11.099 2°41.951 55.7 0.2 101 12.5
2006-01-27 06:23:26 51°11.1 2°41.952 55 0.3 357 12.4
2006-01-27 06:23:31 51°11.1 2°41.951 54.8 0.4 -999 12.5
2006-01-27 06:23:36 51°11.1 2°41.952 55.2 0.2 20 12.4
2006-01-27 06:23:41 51°11.1 2°41.952 55.1 0.2 15 12.3
2006-01-27 06:23:45 51°11.101 2°41.951 54.9 0.4 317 12.2
2006-01-27 06:23:51 51°11.102 2°41.951 54.2 0.5 313 12.2
2006-01-27 06:23:56 51°11.101 2°41.952 54.8 0.1 117 12.2
2006-01-27 06:24:01 51°11.102 2°41.951 55.4 0.3 331 12.2
2006-01-27 06:24:06 51°11.102 2°41.951 54.6 0.2 318 12.2
2006-01-27 06:24:11 51°11.102 2°41.95 54.7 0.1 265 12.2
2006-01-27 06:24:16 51°11.102 2°41.95 55.5 0.1 327 12.3
2006-01-27 06:24:21 51°11.102 2°41.95 55.9 0.1 304 12.3
2006-01-27 06:24:26 51°11.102 2°41.95 56.3 0.1 317 12.3
2006-01-27 06:24:31 51°11.102 2°41.95 57.1 0.1 177 12.3
2006-01-27 06:24:36 51°11.102 2°41.95 57.6 0.2 318 12.3
2006-01-27 06:24:41 51°11.102 2°41.95 58.6 0.1 74 12.3
2006-01-27 06:24:46 51°11.103 2°41.951 59.3 0.1 59 12.3
2006-01-27 06:24:51 51°11.103 2°41.95 59.8 0.1 9 12.3
2006-01-27 06:24:56 51°11.103 2°41.949 60.5 0.2 341 12.3
2006-01-27 06:25:01 51°11.102 2°41.95 61.6 0.2 184 12.1
2006-01-27 06:25:06 51°11.103 2°41.95 62.6 0.2 279 12.1
2006-01-27 06:25:12 51°11.103 2°41.95 63.2 0.2 212 12.1
2006-01-27 06:25:16 51°11.103 2°41.95 63.2 0.1 171 12.2
2006-01-27 06:25:21 51°11.102 2°41.95 63.6 0.4 151 12.3
2006-01-27 06:25:25 51°11.102 2°41.95 63.8 0.2 298 12.2
2006-01-27 06:25:31 51°11.102 2°41.95 63.8 0.1 202 12.2
2006-01-27 06:25:36 51°11.102 2°41.95 63.8 0.1 157 12.2
2006-01-27 06:25:41 51°11.102 2°41.95 63.8 -999 91 12.3
2006-01-27 06:25:46 51°11.102 2°41.95 63.8 0.1 180 12.4
2006-01-27 06:25:51 51°11.102 2°41.95 63.5 0.3 134 12.3
2006-01-27 06:25:56 51°11.102 2°41.95 63.9 0.2 338 12.2
2006-01-27 06:26:01 51°11.102 2°41.95 64.9 0.2 147 12.2
2006-01-27 06:26:06 51°11.102 2°41.95 65.5 0.1 115 12.1
2006-01-27 06:26:11 51°11.102 2°41.95 65.5 0.1 357 12.1
2006-01-27 06:26:16 51°11.102 2°41.95 65.4 0.1 138 12.1
2006-01-27 06:26:21 51°11.102 2°41.951 65.4 0.2 170 12.1